Regional Weather Roundup
Issued by NWS

Home | Current Version | Previous Version | Text Only | Print | Product List | Glossary On
Versions: 1 2 3 4 5 6 7 8 9 10 11 12 13 14 15 16 17 18 19 20 21 22 23 24 25 26 27
000
ASUS45 KCYS 260510
RWRWY

WYOMING REGIONAL WEATHER ROUNDUP
NATIONAL WEATHER SERVICE CHEYENNE WY
1100 PM MDT WED APR 25 2018

NOTE:  "FAIR" INDICATES FEW OR NO CLOUDS BELOW 12,000 FEET
WITH NO SIGNIFICANT WEATHER AND/OR OBSTRUCTIONS TO VISIBILITY.

WYZ001-260600-
YELLOWSTONE NATIONAL PARK

CITY           SKY/WX    TMP DP  RH WIND       PRES   REMARKS
LK YELLOWSTONE   N/A     35  25  66 VRB3      30.29R
W YELLOWSTONE  NOT AVBL

$$
WYZ002>013-054>058-071-098>099-260600-
NORTHERN WYOMING

CITY           SKY/WX    TMP DP  RH WIND       PRES   REMARKS
JACKSON        FAIR      43  23  45 W3        30.19S
CODY           LGT RAIN  41  36  82 NW5       30.28R
GREYBULL       CLOUDY    47  37  68 NW18      30.19R
WORLAND        MOCLDY    49  33  54 N26G41    30.17R
SHERIDAN       CLOUDY    45  36  70 W15       30.21R
BUFFALO        FAIR      48  29  47 NW25G39   30.17R
GILLETTE       FAIR      46  31  55 NW17      30.10R
HULETT         FAIR      48  32  53 NW13      30.09R
NEWCASTLE      FAIR      54  23  30 N17G29    30.02R

$$
WYZ014>020-022>026-101>103-260600-
CENTRAL WYOMING

CITY           SKY/WX    TMP DP  RH WIND       PRES   REMARKS
BIG PINEY      FAIR      36  18  48 N10       30.21R WCI  28
PINEDALE       FAIR      34  23  64 NW5       30.21S WCI  30
DUBOIS         MOCLDY    41  27  56 W9        30.20R
LANDER         FAIR      49  20  31 NW5       30.18R
RIVERTON       FAIR      48  28  46 N28G35    30.15R
CASPER         FAIR      49  25  39 N15G24    30.12R
DOUGLAS        FAIR      51  25  36 N15       30.06R

$$
WYZ021-027>030-104>119-260600-
SOUTHERN WYOMING

CITY           SKY/WX    TMP DP  RH WIND       PRES   REMARKS
EVANSTON       FAIR      46  20  35 SW5       30.22R
KEMMERER       FAIR      43  25  49 N7        30.23R
FORT BRIDGER   FAIR      47  20  34 W8        30.24S
ROCK SPRINGS   FAIR      50  20  30 W13       30.17R
DIXON          FAIR      41  19  41 CALM      30.16R
RAWLINS        FAIR      47  15  27 N26G35    30.10R
SARATOGA       FAIR      45  10  24 SW14      30.09F
LARAMIE        FAIR      43  12  28 W10       30.06F
CHEYENNE       FAIR      42  26  53 W10       30.03F
TORRINGTON     FAIR      55  26  32 N15G26    29.93R
PINE BLUFFS    FAIR      37  27  65 W6        30.00F WCI  33

$$




USA.gov is the U.S. government's official web portal to all federal, state and local government web resources and services.